TimePDT,TemperatureF,Dew PointF,Humidity,Sea Level PressureIn,VisibilityMPH,Wind Direction,Wind SpeedMPH,Gust SpeedMPH,PrecipitationIn,Events,Conditions,WindDirDegrees,DateUTC
12:15 AM,30.2,26.6,86,30.29,10.0,Calm,Calm,-,N/A,,Clear,0,2013-03-12 07:15:00
12:35 AM,28.4,26.6,93,30.29,10.0,Calm,Calm,-,N/A,,Clear,0,2013-03-12 07:35:00
12:55 AM,28.4,26.6,93,30.29,10.0,Calm,Calm,-,N/A,,Clear,0,2013-03-12 07:55:00
1:15 AM,28.4,26.6,93,30.29,10.0,Calm,Calm,-,N/A,,Clear,0,2013-03-12 08:15:00
1:35 AM,28.4,26.6,93,30.30,10.0,Calm,Calm,-,N/A,,Clear,0,2013-03-12 08:35:00
1:55 AM,26.6,24.8,93,30.30,10.0,Calm,Calm,-,N/A,,Clear,0,2013-03-12 08:55:00
2:15 AM,26.6,26.6,100,30.29,10.0,Calm,Calm,-,N/A,,Clear,0,2013-03-12 09:15:00
2:35 AM,26.6,24.8,93,30.29,10.0,Calm,Calm,-,N/A,,Clear,0,2013-03-12 09:35:00
2:55 AM,26.6,24.8,93,30.29,10.0,Calm,Calm,-,N/A,,Clear,0,2013-03-12 09:55:00
3:15 AM,24.8,24.8,100,30.28,10.0,Calm,Calm,-,N/A,,Clear,0,2013-03-12 10:15:00
3:35 AM,24.8,24.8,100,30.28,10.0,Calm,Calm,-,N/A,,Clear,0,2013-03-12 10:35:00
3:55 AM,24.8,23.0,93,30.28,10.0,Calm,Calm,-,N/A,,Clear,0,2013-03-12 10:55:00
4:15 AM,24.8,24.8,100,30.29,10.0,Calm,Calm,-,N/A,,Clear,0,2013-03-12 11:15:00
4:35 AM,23.0,21.2,93,30.28,10.0,Calm,Calm,-,N/A,,Clear,0,2013-03-12 11:35:00
4:55 AM,24.8,23.0,93,30.28,10.0,Calm,Calm,-,N/A,,Clear,0,2013-03-12 11:55:00
5:15 AM,24.8,23.0,93,30.28,10.0,Calm,Calm,-,N/A,,Clear,0,2013-03-12 12:15:00
5:35 AM,23.0,19.4,86,30.28,10.0,SE,4.6,-,N/A,,Clear,140,2013-03-12 12:35:00
5:55 AM,23.0,19.4,86,30.28,10.0,Calm,Calm,-,N/A,,Clear,0,2013-03-12 12:55:00
6:15 AM,23.0,21.2,93,30.29,10.0,Calm,Calm,-,N/A,,Clear,0,2013-03-12 13:15:00
6:35 AM,23.0,19.4,86,30.29,10.0,Calm,Calm,-,N/A,,Clear,0,2013-03-12 13:35:00
6:55 AM,23.0,23.0,100,30.29,10.0,Calm,Calm,-,N/A,,Partly Cloudy,0,2013-03-12 13:55:00
7:50 AM,23.0,21.2,93,30.30,10.0,Calm,Calm,-,N/A,,Scattered Clouds,0,2013-03-12 14:50:00
8:45 AM,28.4,24.8,86,30.30,10.0,Calm,Calm,-,N/A,,Scattered Clouds,0,2013-03-12 15:45:00
9:50 AM,32.0,26.6,80,30.31,10.0,ENE,3.5,-,N/A,,Scattered Clouds,70,2013-03-12 16:50:00
10:55 AM,41.0,24.8,53,30.31,10.0,Calm,Calm,-,N/A,,Mostly Cloudy,0,2013-03-12 17:55:00
11:55 AM,51.8,26.6,38,30.29,10.0,Calm,Calm,-,N/A,,Mostly Cloudy,0,2013-03-12 18:55:00
12:45 PM,57.2,24.8,29,30.28,10.0,Calm,Calm,-,N/A,,Mostly Cloudy,0,2013-03-12 19:45:00
1:50 PM,59.0,15.8,19,30.26,10.0,Calm,Calm,-,N/A,,Mostly Cloudy,0,2013-03-12 20:50:00
2:45 PM,62.6,15.8,16,30.24,10.0,Calm,Calm,-,N/A,,Mostly Cloudy,0,2013-03-12 21:45:00
3:50 PM,62.6,19.4,19,30.23,10.0,NNE,5.8,-,N/A,,Mostly Cloudy,30,2013-03-12 22:50:00
4:50 PM,62.6,17.6,18,30.23,10.0,NNE,3.5,-,N/A,,Mostly Cloudy,30,2013-03-12 23:50:00
5:45 PM,59.0,26.6,29,30.24,10.0,SSE,5.8,-,N/A,,Mostly Cloudy,160,2013-03-13 00:45:00
5:55 PM,59.0,26.6,29,30.24,10.0,South,4.6,-,N/A,,Clear,170,2013-03-13 00:55:00
6:15 PM,57.2,24.8,29,30.24,10.0,Calm,Calm,-,N/A,,Clear,0,2013-03-13 01:15:00
6:35 PM,57.2,32.0,38,30.25,10.0,West,3.5,-,N/A,,Clear,280,2013-03-13 01:35:00
6:55 PM,55.4,37.4,51,30.25,10.0,West,5.8,-,N/A,,Clear,270,2013-03-13 01:55:00
7:15 PM,48.2,32.0,54,30.26,10.0,Calm,Calm,-,N/A,,Clear,0,2013-03-13 02:15:00
7:35 PM,44.6,28.4,53,30.27,10.0,SSE,6.9,-,N/A,,Clear,150,2013-03-13 02:35:00
7:55 PM,42.8,28.4,57,30.27,10.0,SSE,6.9,-,N/A,,Clear,160,2013-03-13 02:55:00
8:15 PM,41.0,32.0,70,30.28,10.0,South,4.6,-,N/A,,Clear,170,2013-03-13 03:15:00
8:35 PM,41.0,32.0,70,30.29,10.0,South,4.6,-,N/A,,Clear,170,2013-03-13 03:35:00
8:55 PM,39.2,30.2,70,30.29,10.0,SSE,4.6,-,N/A,,Clear,160,2013-03-13 03:55:00
9:15 PM,37.4,32.0,81,30.29,10.0,Calm,Calm,-,N/A,,Clear,0,2013-03-13 04:15:00
9:35 PM,39.2,32.0,75,30.31,10.0,NNE,4.6,-,N/A,,Clear,30,2013-03-13 04:35:00
9:55 PM,37.4,30.2,75,30.31,10.0,SSE,3.5,-,N/A,,Clear,160,2013-03-13 04:55:00
10:15 PM,37.4,32.0,81,30.32,10.0,Calm,Calm,-,N/A,,Clear,0,2013-03-13 05:15:00
10:35 PM,37.4,32.0,81,30.32,10.0,Calm,Calm,-,N/A,,Clear,0,2013-03-13 05:35:00
10:55 PM,35.6,32.0,87,30.32,10.0,Calm,Calm,-,N/A,,Clear,0,2013-03-13 05:55:00
11:15 PM,37.4,32.0,81,30.32,10.0,Calm,Calm,-,N/A,,Clear,0,2013-03-13 06:15:00
11:35 PM,37.4,30.2,75,30.33,10.0,Calm,Calm,-,N/A,,Clear,0,2013-03-13 06:35:00
11:55 PM,35.6,30.2,81,30.33,10.0,Calm,Calm,-,N/A,,Clear,0,2013-03-13 06:55:00